QFA475 YSSY-YMML

Flight info

Callsign QFA475
Flight time 1h 12m
Altitude 34000
Route WOL H65 LEECE Q29 ML
Aircraft B738/M-SDE2E3FGHIRWXY/LB1

Departure

Time 2026-04-30 07:47
Airport Sydney Kingsford Smith International Airport (YSSY)

Arrival

Time 2026-04-30 08:59
Airport Melbourne Airport (YMML)
Time Latitude Longitude Altitude Speed Heading
2026-04-30 07:07 -33.93197 151.17635 19 ft 0 kts 85°
2026-04-30 07:26 -33.93200 151.17601 19 ft 4 kts 85°
2026-04-30 07:27 -33.93201 151.17580 18 ft 0 kts 87°
2026-04-30 07:27 -33.93202 151.17581 18 ft 0 kts 111°
2026-04-30 07:27 -33.93206 151.17583 18 ft 0 kts 166°
2026-04-30 07:27 -33.93215 151.17577 18 ft 2 kts 210°
2026-04-30 07:28 -33.93235 151.17564 18 ft 4 kts 200°
2026-04-30 07:28 -33.93265 151.17563 17 ft 0 kts 169°
2026-04-30 07:30 -33.93266 151.17564 17 ft 1 kts 169°
2026-04-30 07:30 -33.93293 151.17570 17 ft 7 kts 169°
2026-04-30 07:30 -33.93364 151.17587 15 ft 12 kts 171°
2026-04-30 07:31 -33.93449 151.17584 11 ft 13 kts 190°
2026-04-30 07:31 -33.93539 151.17598 9 ft 12 kts 167°
2026-04-30 07:31 -33.93624 151.17625 9 ft 12 kts 155°
2026-04-30 07:31 -33.93705 151.17674 9 ft 13 kts 161°
2026-04-30 07:32 -33.93798 151.17700 9 ft 13 kts 167°
2026-04-30 07:32 -33.93843 151.17734 9 ft 0 kts 130°
2026-04-30 07:32 -33.93846 151.17738 10 ft 2 kts 129°
2026-04-30 07:33 -33.93868 151.17764 10 ft 5 kts 145°
2026-04-30 07:33 -33.93916 151.17783 11 ft 9 kts 167°
2026-04-30 07:33 -33.94001 151.17806 12 ft 15 kts 168°
2026-04-30 07:33 -33.94127 151.17837 15 ft 20 kts 168°
2026-04-30 07:34 -33.94264 151.17873 19 ft 19 kts 168°
2026-04-30 07:34 -33.94394 151.17906 24 ft 18 kts 168°
2026-04-30 07:34 -33.94494 151.17888 26 ft 12 kts 197°
2026-04-30 07:34 -33.94561 151.17892 26 ft 7 kts 169°
2026-04-30 07:35 -33.94599 151.17900 27 ft 4 kts 168°
2026-04-30 07:35 -33.94644 151.17912 27 ft 8 kts 167°
2026-04-30 07:35 -33.94718 151.17932 27 ft 12 kts 168°
2026-04-30 07:35 -33.94819 151.17958 28 ft 16 kts 168°
2026-04-30 07:36 -33.94941 151.17990 27 ft 19 kts 168°
2026-04-30 07:36 -33.95030 151.18015 25 ft 15 kts 168°
2026-04-30 07:36 -33.95102 151.18105 22 ft 10 kts 81°
2026-04-30 07:36 -33.95090 151.18181 21 ft 8 kts 77°
2026-04-30 07:37 -33.95077 151.18251 21 ft 9 kts 78°
2026-04-30 07:37 -33.95061 151.18338 20 ft 10 kts 77°
2026-04-30 07:37 -33.95049 151.18404 20 ft 2 kts 78°
2026-04-30 07:37 -33.95047 151.18413 20 ft 0 kts 78°
2026-04-30 07:40 -33.95044 151.18434 19 ft 4 kts 80°
2026-04-30 07:40 -33.95050 151.18478 19 ft 6 kts 117°
2026-04-30 07:41 -33.95089 151.18521 18 ft 4 kts 148°
2026-04-30 07:41 -33.95123 151.18552 17 ft 7 kts 139°
2026-04-30 07:41 -33.95169 151.18604 16 ft 10 kts 137°
2026-04-30 07:41 -33.95232 151.18668 15 ft 12 kts 145°
2026-04-30 07:42 -33.95320 151.18721 13 ft 15 kts 162°
2026-04-30 07:42 -33.95434 151.18751 12 ft 19 kts 168°
2026-04-30 07:42 -33.95581 151.18790 10 ft 23 kts 168°
2026-04-30 07:42 -33.95750 151.18834 10 ft 25 kts 168°
2026-04-30 07:43 -33.95928 151.18880 10 ft 27 kts 168°
2026-04-30 07:43 -33.96120 151.18930 10 ft 27 kts 168°
2026-04-30 07:43 -33.96298 151.18977 11 ft 25 kts 167°
2026-04-30 07:43 -33.96470 151.19020 12 ft 24 kts 168°
2026-04-30 07:44 -33.96639 151.19064 12 ft 24 kts 168°
2026-04-30 07:44 -33.96779 151.19090 13 ft 20 kts 187°
2026-04-30 07:44 -33.96891 151.19087 13 ft 16 kts 173°
2026-04-30 07:44 -33.97013 151.19118 13 ft 19 kts 167°
2026-04-30 07:45 -33.97116 151.19157 13 ft 5 kts 133°
2026-04-30 07:45 -33.97128 151.19197 13 ft 5 kts 97°
2026-04-30 07:45 -33.97125 151.19241 14 ft 6 kts 79°
2026-04-30 07:45 -33.97114 151.19308 15 ft 10 kts 78°
2026-04-30 07:46 -33.97073 151.19383 16 ft 12 kts 354°
2026-04-30 07:46 -33.96980 151.19356 16 ft 15 kts 348°
2026-04-30 07:46 -33.96732 151.19290 13 ft 77 kts 348°
2026-04-30 07:46 -33.95931 151.19083 12 ft 156 kts 348°
2026-04-30 07:47 -33.94753 151.18787 475 ft 185 kts 349°
2026-04-30 07:47 -33.93386 151.18605 1071 ft 214 kts
2026-04-30 07:47 -33.92186 151.19424 2281 ft 200 kts 52°
2026-04-30 07:47 -33.91711 151.20926 3204 ft 195 kts 88°
2026-04-30 07:48 -33.91885 151.22490 4086 ft 191 kts 109°
2026-04-30 07:48 -33.92446 151.23921 4850 ft 192 kts 118°
2026-04-30 07:48 -33.93092 151.25382 5075 ft 210 kts 118°
2026-04-30 07:48 -33.93727 151.26973 5851 ft 211 kts 107°
2026-04-30 07:49 -33.93859 151.28703 6642 ft 215 kts 87°
2026-04-30 07:49 -33.93765 151.30597 7032 ft 239 kts 87°
2026-04-30 07:49 -33.93689 151.32654 7614 ft 257 kts 88°
2026-04-30 07:49 -33.93612 151.34891 8248 ft 274 kts 88°
2026-04-30 07:50 -33.93533 151.37203 9128 ft 280 kts 88°
2026-04-30 07:50 -33.93453 151.39566 9966 ft 287 kts 88°
2026-04-30 07:50 -33.93372 151.41962 10634 ft 299 kts 88°
2026-04-30 07:50 -33.93285 151.44586 10968 ft 323 kts 88°
2026-04-30 07:51 -33.93195 151.47314 11716 ft 331 kts 88°
2026-04-30 07:51 -33.93277 151.50107 12386 ft 341 kts 100°
2026-04-30 07:51 -33.93986 151.52841 13229 ft 344 kts 116°
2026-04-30 07:51 -33.95337 151.55225 14000 ft 348 kts 134°
2026-04-30 07:52 -33.97236 151.57005 14748 ft 353 kts 153°
2026-04-30 07:52 -33.99564 151.57881 15498 ft 356 kts 173°
2026-04-30 07:52 -34.02030 151.57837 16217 ft 360 kts 190°
2026-04-30 07:52 -34.04387 151.56838 16874 ft 364 kts 211°
2026-04-30 07:53 -34.06299 151.54825 17562 ft 368 kts 233°
2026-04-30 07:53 -34.07573 151.52151 18269 ft 370 kts 242°
2026-04-30 07:53 -34.08997 151.49603 18813 ft 376 kts 229°
2026-04-30 07:53 -34.10791 151.47316 19506 ft 377 kts 227°
2026-04-30 07:54 -34.12548 151.44948 20061 ft 383 kts 230°
2026-04-30 07:54 -34.14264 151.42476 20679 ft 385 kts 230°
2026-04-30 07:54 -34.15956 151.39993 21241 ft 389 kts 231°
2026-04-30 07:54 -34.17662 151.37462 21801 ft 392 kts 231°
2026-04-30 07:55 -34.19395 151.34869 22346 ft 396 kts 231°
2026-04-30 07:55 -34.21109 151.32288 22867 ft 399 kts 231°
2026-04-30 07:55 -34.22836 151.29675 23374 ft 402 kts 231°
2026-04-30 07:55 -34.24587 151.27017 23867 ft 405 kts 231°
2026-04-30 07:56 -34.26344 151.24347 24348 ft 408 kts 231°
2026-04-30 07:56 -34.28097 151.21674 24806 ft 411 kts 232°
2026-04-30 07:56 -34.29877 151.18957 25260 ft 414 kts 232°
2026-04-30 07:56 -34.31686 151.16193 25699 ft 417 kts 232°
2026-04-30 07:57 -34.33481 151.13448 26126 ft 419 kts 232°
2026-04-30 07:57 -34.35294 151.10669 26536 ft 422 kts 232°
2026-04-30 07:57 -34.37095 151.07907 26936 ft 425 kts 232°
2026-04-30 07:57 -34.38937 151.05080 27324 ft 428 kts 232°
2026-04-30 07:58 -34.40770 151.02264 27704 ft 430 kts 232°
2026-04-30 07:58 -34.42628 150.99409 28069 ft 433 kts 232°
2026-04-30 07:58 -34.44497 150.96533 28434 ft 435 kts 232°
2026-04-30 07:58 -34.46370 150.93648 28813 ft 436 kts 232°
2026-04-30 07:59 -34.48234 150.90775 29210 ft 437 kts 232°
2026-04-30 07:59 -34.50117 150.87869 29621 ft 438 kts 232°
2026-04-30 07:59 -34.51981 150.84992 30031 ft 437 kts 232°
2026-04-30 08:00 -34.55687 150.79147 30858 ft 437 kts 233°
2026-04-30 08:00 -34.57442 150.76248 31260 ft 436 kts 233°
2026-04-30 08:00 -34.59209 150.73344 31657 ft 435 kts 233°
2026-04-30 08:00 -34.60968 150.70453 32047 ft 435 kts 233°
2026-04-30 08:01 -34.62754 150.67509 32435 ft 434 kts 233°
2026-04-30 08:01 -34.64531 150.64571 32817 ft 433 kts 233°
2026-04-30 08:01 -34.66309 150.61623 33190 ft 432 kts 233°
2026-04-30 08:01 -34.68082 150.58679 33559 ft 432 kts 233°
2026-04-30 08:02 -34.71599 150.52830 34008 ft 432 kts 233°
2026-04-30 08:02 -34.73360 150.49895 33999 ft 429 kts 233°
2026-04-30 08:03 -34.80298 150.38304 34000 ft 424 kts 233°
2026-04-30 08:04 -34.83747 150.32526 34000 ft 425 kts 234°
2026-04-30 08:04 -34.87209 150.26717 34000 ft 424 kts 234°
2026-04-30 08:05 -34.90674 150.20892 34000 ft 424 kts 234°
2026-04-30 08:05 -34.94115 150.15097 34000 ft 424 kts 234°
2026-04-30 08:06 -34.97575 150.09262 34000 ft 424 kts 234°
2026-04-30 08:06 -35.00987 150.03497 34000 ft 424 kts 234°
2026-04-30 08:07 -35.04406 149.97711 33999 ft 424 kts 234°
2026-04-30 08:07 -35.07846 149.91884 33999 ft 424 kts 234°
2026-04-30 08:08 -35.11277 149.86063 34000 ft 424 kts 234°
2026-04-30 08:08 -35.14663 149.80309 34000 ft 424 kts 234°
2026-04-30 08:09 -35.18034 149.74571 34000 ft 424 kts 234°
2026-04-30 08:09 -35.21430 149.68779 34000 ft 424 kts 234°
2026-04-30 08:10 -35.24813 149.63001 34000 ft 424 kts 234°
2026-04-30 08:10 -35.28077 149.57419 34000 ft 424 kts 234°
2026-04-30 08:11 -35.31508 149.51540 34000 ft 424 kts 234°
2026-04-30 08:11 -35.34893 149.45728 34000 ft 424 kts 234°
2026-04-30 08:12 -35.38298 149.39876 34000 ft 424 kts 234°
2026-04-30 08:12 -35.41657 149.34091 34000 ft 424 kts 234°
2026-04-30 08:13 -35.44968 149.28380 33999 ft 424 kts 234°
2026-04-30 08:13 -35.48103 149.22965 34000 ft 424 kts 234°
2026-04-30 08:14 -35.51276 149.17473 34000 ft 424 kts 234°
2026-04-30 08:14 -35.53516 149.13592 33999 ft 424 kts 234°
2026-04-30 08:15 -35.56919 149.07689 34000 ft 424 kts 234°
2026-04-30 08:15 -35.60309 149.01796 34000 ft 424 kts 234°
2026-04-30 08:16 -35.63698 148.95897 34000 ft 424 kts 234°
2026-04-30 08:16 -35.67093 148.89977 33999 ft 424 kts 234°
2026-04-30 08:17 -35.70481 148.84058 33999 ft 424 kts 234°
2026-04-30 08:17 -35.73863 148.78140 33999 ft 424 kts 234°
2026-04-30 08:18 -35.77244 148.72214 33999 ft 424 kts 234°
2026-04-30 08:18 -35.80633 148.66264 33999 ft 424 kts 234°
2026-04-30 08:19 -35.84008 148.60327 33999 ft 424 kts 234°
2026-04-30 08:19 -35.87002 148.55054 33999 ft 424 kts 234°
2026-04-30 08:20 -35.90006 148.49747 33999 ft 424 kts 234°
2026-04-30 08:20 -35.93368 148.43784 33999 ft 424 kts 234°
2026-04-30 08:21 -35.96725 148.37823 33999 ft 424 kts 234°
2026-04-30 08:21 -36.00098 148.31822 34000 ft 424 kts 235°
2026-04-30 08:22 -36.03442 148.25862 34000 ft 424 kts 235°
2026-04-30 08:22 -36.06734 148.19984 34000 ft 424 kts 235°
2026-04-30 08:23 -36.10072 148.14017 34000 ft 424 kts 235°
2026-04-30 08:23 -36.13437 148.07988 33999 ft 424 kts 235°
2026-04-30 08:24 -36.16753 148.02037 34000 ft 424 kts 235°
2026-04-30 08:24 -36.20107 147.96008 34000 ft 424 kts 235°
2026-04-30 08:25 -36.23435 147.90015 34000 ft 424 kts 235°
2026-04-30 08:25 -36.26780 147.83981 34000 ft 424 kts 235°
2026-04-30 08:26 -36.30099 147.77983 34000 ft 424 kts 235°
2026-04-30 08:26 -36.33435 147.71945 34000 ft 424 kts 235°
2026-04-30 08:27 -36.36750 147.65932 34000 ft 424 kts 235°
2026-04-30 08:27 -36.40073 147.59897 34000 ft 424 kts 235°
2026-04-30 08:28 -36.43388 147.53863 34000 ft 424 kts 235°
2026-04-30 08:28 -36.46681 147.47859 34000 ft 424 kts 235°
2026-04-30 08:29 -36.49987 147.41823 34000 ft 424 kts 235°
2026-04-30 08:29 -36.53302 147.35759 33999 ft 424 kts 235°
2026-04-30 08:30 -36.56617 147.29681 34000 ft 424 kts 236°
2026-04-30 08:30 -36.59903 147.23648 34000 ft 424 kts 236°
2026-04-30 08:31 -36.63199 147.17587 34000 ft 424 kts 236°
2026-04-30 08:31 -36.66522 147.11464 34000 ft 424 kts 236°
2026-04-30 08:32 -36.69802 147.05409 34000 ft 424 kts 236°
2026-04-30 08:32 -36.73096 146.99316 34000 ft 424 kts 236°
2026-04-30 08:33 -36.76378 146.93237 33999 ft 424 kts 236°
2026-04-30 08:33 -36.79650 146.87164 33999 ft 424 kts 236°
2026-04-30 08:34 -36.82941 146.81045 33999 ft 424 kts 236°
2026-04-30 08:34 -36.86207 146.74963 33999 ft 424 kts 236°
2026-04-30 08:34 -36.87836 146.71925 33895 ft 418 kts 236°
2026-04-30 08:35 -36.89448 146.68916 33341 ft 414 kts 236°
2026-04-30 08:35 -36.91025 146.65970 32876 ft 409 kts 236°
2026-04-30 08:35 -36.92604 146.63016 32376 ft 405 kts 236°
2026-04-30 08:35 -36.94157 146.60110 31879 ft 401 kts 236°
2026-04-30 08:36 -36.95694 146.57231 31384 ft 397 kts 236°
2026-04-30 08:36 -36.97216 146.54376 30893 ft 393 kts 236°
2026-04-30 08:36 -36.98715 146.51564 30407 ft 390 kts 236°
2026-04-30 08:36 -37.00211 146.48755 29922 ft 386 kts 236°
2026-04-30 08:37 -37.01684 146.45987 29442 ft 382 kts 236°
2026-04-30 08:37 -37.03145 146.43239 28966 ft 379 kts 236°
2026-04-30 08:37 -37.04584 146.40529 28495 ft 375 kts 236°
2026-04-30 08:37 -37.06023 146.37819 28024 ft 372 kts 236°
2026-04-30 08:38 -37.07451 146.35126 27555 ft 368 kts 236°
2026-04-30 08:38 -37.08850 146.32486 27095 ft 365 kts 237°
2026-04-30 08:38 -37.10239 146.29863 26637 ft 361 kts 237°
2026-04-30 08:38 -37.11626 146.27241 26179 ft 358 kts 237°
2026-04-30 08:39 -37.12986 146.24669 25730 ft 355 kts 237°
2026-04-30 08:39 -37.14348 146.22092 25284 ft 359 kts 237°
2026-04-30 08:39 -37.15727 146.19479 24823 ft 357 kts 237°
2026-04-30 08:39 -37.17094 146.16887 24368 ft 353 kts 237°
2026-04-30 08:40 -37.18430 146.14352 23924 ft 350 kts 237°
2026-04-30 08:40 -37.19752 146.11841 23483 ft 346 kts 237°
2026-04-30 08:40 -37.21074 146.09328 23043 ft 343 kts 237°
2026-04-30 08:40 -37.22375 146.06854 22608 ft 340 kts 237°
2026-04-30 08:41 -37.23682 146.04367 22172 ft 337 kts 237°
2026-04-30 08:41 -37.24955 146.01944 21747 ft 334 kts 237°
2026-04-30 08:41 -37.26225 145.99522 21321 ft 331 kts 237°
2026-04-30 08:41 -37.27485 145.97119 20903 ft 335 kts 237°
2026-04-30 08:42 -37.28762 145.94681 20470 ft 333 kts 237°
2026-04-30 08:42 -37.30030 145.92261 20043 ft 329 kts 237°
2026-04-30 08:42 -37.31270 145.89890 19624 ft 326 kts 237°
2026-04-30 08:42 -37.32444 145.87643 19228 ft 323 kts 237°
2026-04-30 08:43 -37.33084 145.86420 19012 ft 322 kts 237°
2026-04-30 08:43 -37.34313 145.84065 18597 ft 319 kts 237°
2026-04-30 08:43 -37.35524 145.81746 18188 ft 316 kts 237°
2026-04-30 08:43 -37.36705 145.79481 17788 ft 313 kts 237°
2026-04-30 08:44 -37.37910 145.77170 17384 ft 317 kts 237°
2026-04-30 08:44 -37.39113 145.74860 16973 ft 315 kts 237°
2026-04-30 08:44 -37.40290 145.72598 16572 ft 312 kts 237°
2026-04-30 08:44 -37.41475 145.70322 16169 ft 309 kts 237°
2026-04-30 08:45 -37.42652 145.68056 15768 ft 306 kts 237°
2026-04-30 08:45 -37.43810 145.65826 15373 ft 303 kts 236°
2026-04-30 08:45 -37.44994 145.63687 14987 ft 300 kts 233°
2026-04-30 08:45 -37.46247 145.61565 14594 ft 298 kts 233°
2026-04-30 08:46 -37.47475 145.59467 14211 ft 303 kts 233°
2026-04-30 08:46 -37.48719 145.57330 13813 ft 300 kts 233°
2026-04-30 08:46 -37.49943 145.55228 13424 ft 297 kts 233°
2026-04-30 08:46 -37.51142 145.53166 13043 ft 294 kts 233°
2026-04-30 08:47 -37.52349 145.51088 12659 ft 291 kts 233°
2026-04-30 08:47 -37.53536 145.49045 12282 ft 289 kts 233°
2026-04-30 08:47 -37.54729 145.46986 11902 ft 286 kts 233°
2026-04-30 08:47 -37.55904 145.44971 11532 ft 288 kts 233°
2026-04-30 08:48 -37.57091 145.42940 11153 ft 288 kts 233°
2026-04-30 08:48 -37.58270 145.40920 10776 ft 286 kts 233°
2026-04-30 08:48 -37.59445 145.38902 10409 ft 283 kts 233°
2026-04-30 08:48 -37.60600 145.36920 10054 ft 279 kts 233°
2026-04-30 08:49 -37.61717 145.35002 9910 ft 269 kts 233°
2026-04-30 08:49 -37.62830 145.33090 9526 ft 268 kts 234°
2026-04-30 08:49 -37.63922 145.31213 9188 ft 266 kts 234°
2026-04-30 08:49 -37.65004 145.29352 8857 ft 268 kts 234°
2026-04-30 08:50 -37.66114 145.27441 8513 ft 269 kts 234°
2026-04-30 08:50 -37.67201 145.25569 8177 ft 266 kts 234°
2026-04-30 08:50 -37.68292 145.23689 7840 ft 264 kts 234°
2026-04-30 08:50 -37.69374 145.21825 7505 ft 261 kts 234°
2026-04-30 08:51 -37.70435 145.19984 7175 ft 259 kts 234°
2026-04-30 08:51 -37.71486 145.18158 6848 ft 257 kts 234°
2026-04-30 08:51 -37.72539 145.16324 6522 ft 258 kts 234°
2026-04-30 08:51 -37.73600 145.14478 6190 ft 260 kts 234°
2026-04-30 08:52 -37.74653 145.12645 5859 ft 257 kts 234°
2026-04-30 08:52 -37.75696 145.10826 5555 ft 254 kts 234°
2026-04-30 08:52 -37.76709 145.09059 5418 ft 244 kts 234°
2026-04-30 08:52 -37.77697 145.07335 5099 ft 243 kts 234°
2026-04-30 08:53 -37.78682 145.05612 4803 ft 241 kts 234°
2026-04-30 08:53 -37.79657 145.03908 4511 ft 239 kts 234°
2026-04-30 08:53 -37.80633 145.02202 4214 ft 237 kts 234°
2026-04-30 08:53 -37.81448 145.00398 3934 ft 237 kts 251°
2026-04-30 08:54 -37.81833 144.98392 3589 ft 237 kts 258°
2026-04-30 08:54 -37.82167 144.96368 3354 ft 233 kts 258°
2026-04-30 08:54 -37.82502 144.94371 3180 ft 225 kts 259°
2026-04-30 08:54 -37.82747 144.92461 3040 ft 217 kts 261°
2026-04-30 08:55 -37.82976 144.90593 2815 ft 215 kts 261°
2026-04-30 08:55 -37.83054 144.88731 2604 ft 210 kts 281°
2026-04-30 08:55 -37.82385 144.87151 2498 ft 200 kts 319°
2026-04-30 08:55 -37.81144 144.86415 2085 ft 203 kts 352°
2026-04-30 08:56 -37.79777 144.86215 1994 ft 189 kts 351°
2026-04-30 08:56 -37.78502 144.85963 2009 ft 180 kts 351°
2026-04-30 08:56 -37.77279 144.85728 2009 ft 177 kts 351°
2026-04-30 08:56 -37.76109 144.85507 2018 ft 166 kts 351°
2026-04-30 08:57 -37.74975 144.85295 2008 ft 160 kts 351°
2026-04-30 08:57 -37.73874 144.85091 1779 ft 162 kts 352°
2026-04-30 08:57 -37.72837 144.84895 1455 ft 145 kts 350°
2026-04-30 08:57 -37.71860 144.84697 1194 ft 141 kts 352°
2026-04-30 08:58 -37.70880 144.84517 984 ft 145 kts 352°
2026-04-30 08:58 -37.69878 144.84334 780 ft 145 kts 351°
2026-04-30 08:58 -37.68889 144.84151 583 ft 145 kts 352°
2026-04-30 08:58 -37.67931 144.83984 444 ft 128 kts 349°
2026-04-30 08:59 -37.67226 144.83847 442 ft 69 kts 352°
2026-04-30 08:59 -37.66875 144.83791 442 ft 41 kts 353°
2026-04-30 08:59 -37.66624 144.83739 442 ft 27 kts 356°
2026-04-30 08:59 -37.66523 144.83803 442 ft 12 kts 59°
2026-04-30 09:00 -37.66513 144.83830 442 ft 11 kts 71°
2026-04-30 09:00 -37.66510 144.83911 442 ft 8 kts 95°
2026-04-30 09:00 -37.66515 144.83977 442 ft 7 kts 96°
2026-04-30 09:00 -37.66520 144.84047 442 ft 10 kts 94°
2026-04-30 09:01 -37.66526 144.84155 442 ft 14 kts 94°
2026-04-30 09:01 -37.66529 144.84296 442 ft 15 kts 85°
2026-04-30 09:01 -37.66511 144.84433 442 ft 16 kts 81°
2026-04-30 09:01 -37.66493 144.84587 442 ft 18 kts 81°
2026-04-30 09:02 -37.66512 144.84788 442 ft 4 kts 164°
2026-04-30 09:02 -37.66545 144.84830 442 ft 9 kts 103°
2026-04-30 09:02 -37.66537 144.84935 442 ft 14 kts 82°
2026-04-30 09:03 -37.66550 144.85051 442 ft 13 kts 144°
2026-04-30 09:03 -37.66655 144.85075 442 ft 16 kts 172°
2026-04-30 09:03 -37.66734 144.85089 442 ft 9 kts 174°
2026-04-30 09:03 -37.66773 144.85089 442 ft 7 kts 182°
2026-04-30 09:04 -37.66816 144.85082 442 ft 5 kts 215°
2026-04-30 09:04 -37.66827 144.85049 442 ft 2 kts 266°
2026-04-30 09:04 -37.66828 144.85028 442 ft 2 kts 262°
2026-04-30 09:04 -37.66828 144.85027 442 ft 0 kts 262°